Location: Seattle
(47.6064°N, 122.3308°W)
Time: 03:38:50
(UTC-07:00)

ITUPSAT 1 - Pass Details

Date: 08 April 2023
Orbit: 697 x 710 km, 98.5° (Epoch: 29 May)

Event Time Altitude Azimuth Distance (km) Brightness Sun altitude
Rises 22:54:34 0° 10° (N) 3,118 ? -27.2°
Reaches altitude 10° 22:56:53 10° 6° (N) 2,193 ? -27.4°
Maximum altitude 23:01:32 53° 290° (WNW) 872 ? -27.9°
Enters shadow 23:02:10 49° 261° (W) 914 ? -28.0°
